Weather History for KNCA - January, 2014

Change the Weather History Date:

Monday, January 13, 2014

  Actual Average Record
Temperature  
Mean Temperature 48 °F -  
Max Temperature 64 °F 53 °F 75 °F (2005)
Min Temperature 33 °F 32 °F 23 °F (2011)
Degree Days  
Heating Degree Days 16    
Moisture  
Dew Point 41 °F    
Average Humidity 77    
Maximum Humidity 96    
Minimum Humidity 45    
Precipitation  
Precipitation 0.00 in - - ()
Sea Level Pressure  
Sea Level Pressure 30.15 in    
Wind  
Wind Speed 3 mph (South)    
Max Wind Speed 13 mph    
Max Gust Speed -    
Visibility 10 miles    
Events Rain    
Averages and records for this station are not official NWS values.
T = Trace of Precipitation, MM = Missing Value Source: NWS Daily Summary

Daily Weather History Graph

Daily Weather History Graph

Search for Another Location

Airport or City:

Trip Planner

Search our weather history database for the weather conditions in past years. The results will help you decide how hot, cold, wet, or windy it might be!

Date:

Astronomy

Jan. 13, 2014 Rise Set
Actual Time 7:17 AM EST 5:20 PM EST
Civil Twilight 6:49 AM EST 5:47 PM EST
Nautical Twilight 6:18 AM EST 6:18 PM EST
Astronomical Twilight 5:48 AM EST 6:49 PM EST
Moon 3:32 PM EST (1/13) 5:04 AM EST (1/13)
Length of Visible Light 10h 58m
Length of Day
10h 03m
Waxing Gibbous, 95% of the Moon is Illuminated
Jan 13
Waxing Gibbous
Jan 15
Full
Jan 24
Last Quarter
Jan 30
New
Feb 6
First Quarter

Hourly Weather History & Observations

Time (EST) Temp. Dew Point Humidity Pressure Visibility Wind Dir Wind Speed Gust Speed Precip Events Conditions
12:56 AM 36.0 °F 34.0 °F 93% 30.21 in 10.0 mi Calm Calm - N/A   Clear
1:56 AM 35.1 °F 34.0 °F 96% 30.22 in 10.0 mi Calm Calm - N/A   Clear
2:56 AM 35.1 °F 33.1 °F 92% 30.21 in 10.0 mi Calm Calm - N/A   Clear
3:56 AM 35.1 °F 33.1 °F 92% 30.21 in 10.0 mi Calm Calm - N/A   Clear
4:56 AM 34.0 °F 33.1 °F 96% 30.21 in 10.0 mi Calm Calm - N/A   Clear
5:56 AM 34.0 °F 32.0 °F 92% 30.21 in 10.0 mi Calm Calm - N/A   Clear
6:56 AM 33.1 °F 30.9 °F 92% 30.22 in 10.0 mi Calm Calm - N/A   Clear
7:56 AM 35.1 °F 33.1 °F 92% 30.24 in 10.0 mi Calm Calm - N/A   Clear
8:56 AM 44.1 °F 39.9 °F 85% 30.24 in 10.0 mi Calm Calm - N/A   Clear
9:56 AM 50.0 °F 43.0 °F 77% 30.24 in 10.0 mi East 3.5 mph - N/A   Clear
10:56 AM 60.1 °F 39.9 °F 47% 30.21 in 10.0 mi SSW 9.2 mph - N/A   Clear
11:56 AM 63.0 °F 41.0 °F 45% 30.17 in 10.0 mi South 9.2 mph - N/A   Clear
12:56 PM 64.0 °F 42.1 °F 45% 30.14 in 10.0 mi SSW 10.4 mph - N/A   Clear
1:56 PM 64.0 °F 45.0 °F 50% 30.12 in 10.0 mi South 12.7 mph - N/A   Partly Cloudy
2:56 PM 63.0 °F 44.1 °F 50% 30.11 in 10.0 mi South 11.5 mph - N/A   Clear
3:56 PM 62.1 °F 44.1 °F 52% 30.10 in 10.0 mi South 5.8 mph - N/A   Clear
4:56 PM 57.0 °F 45.0 °F 64% 30.09 in 10.0 mi SE 6.9 mph - N/A   Clear
5:56 PM 54.0 °F 44.1 °F 69% 30.07 in 10.0 mi SSE 6.9 mph - N/A   Clear
6:56 PM 53.1 °F 45.0 °F 74% 30.05 in 10.0 mi South 4.6 mph - N/A   Partly Cloudy
7:56 PM 53.1 °F 46.9 °F 80% 30.06 in 10.0 mi SSE 4.6 mph - N/A   Partly Cloudy
8:56 PM 53.1 °F 48.0 °F 83% 30.06 in 10.0 mi SSE 3.5 mph - N/A   Mostly Cloudy
9:56 PM 52.0 °F 48.9 °F 89% 30.05 in 10.0 mi Calm Calm - N/A   Overcast
10:56 PM 53.1 °F 50.0 °F 89% 30.04 in 9.0 mi Calm Calm - 0.00 in Rain Light Rain
11:56 PM 51.1 °F 48.9 °F 92% 30.01 in 10.0 mi South 4.6 mph - 0.00 in   Clear